www.pogodaiklimat.ru

Погода и климат >> Архив погоды >> Бразилия >> Пиауи >> Жилбуэс


ПОГОДА в Жилбуэсе

  • Прогноз погоды в Жилбуэсе
  • Монитор погоды в Жилбуэсе

АРХИВ ПОГОДЫ в Жилбуэсе

Время (UTC), дата Ветер
(напр.,м/с)
 
Видим.   Явления Облачность Т
(С)
Тd
(С)
f
(%)
Тe
(С)
Тes
(С)
Комфортность P
(гПа)
Po
(гПа)
Тmin
(С)
Tmax
(С)
R
(мм)
R24
(мм)
S
(см)
10 13.06 ЮВ 2
{3}
н/о н/о +23.1 +15.3 61 +27 +27 душно 1016.5 967.8
11 13.06 ЮВ 3
{5}
н/о н/о +25.2 +15.4 55 +28 +28 жарко 1016.9 968.6
12 13.06 ЮВ 3
{5}
н/о н/о +27.0 +15.6 50 +30 +30 душно 1017.1 969.0
13 13.06 ЮВ 3
{6}
н/о н/о +27.9 +15.7 47 +31 +31 душно 1016.9 969.0
14 13.06 В 3
{5}
н/о н/о +29.3 +15.9 44 +32 +32 душно 1016.3 968.6
15 13.06 ЮВ 3
{5}
н/о н/о +30.7 +16.0 41 +34 +34 очень
душно
1015.0 967.6
16 13.06 ЮВ 3
{6}
н/о н/о +31.5 +15.8 39 +34 +34 душно 1013.7 966.5
17 13.06 В 2
{5}
н/о н/о +33.1 +15.6 35 +35 +35 душно 1012.4 965.5
18 13.06 В 2
{6}
н/о н/о +33.0 +14.8 33 +35 +35 душно 1011.9 965.0
19 13.06 В 2
{5}
н/о н/о +32.4 +14.7 34 +34 +34 очень
жарко
1011.6 964.6
20 13.06 В 2
{4}
н/о н/о +31.8 +14.2 34 +33 +33 жарко 1011.5 964.4
21 13.06 ЮВ 2
{4}
н/о н/о +30.3 +14.6 38 +32 +32 жарко 1012.0 964.7
22 13.06 ЮВ 2
{3}
н/о н/о +29.0 +15.1 43 +32 +32 душно 1012.7 965.2
23 13.06 ЮВ 3
{5}
н/о н/о +29.1 +15.6 44 +32 +32 душно 1013.7 966.1
00 14.06 В 2
{6}
н/о н/о +27.5 +16.0 49 +31 +31 душно 1014.9 967.0
01 14.06 В 1
{3}
н/о н/о +25.6 +16.5 57 +29 +29 душно 1015.9 967.7
02 14.06 В 2
{4}
н/о н/о +24.9 +16.9 61 +29 +29 душно 1016.0 967.7
03 14.06 В 2
{3}
н/о н/о +24.2 +17.0 64 +28 +28 душно 1016.4 967.9
04 14.06 В 1
{3}
н/о н/о +23.3 +16.8 67 +28 +28 душно 1016.3 967.7
05 14.06 В 2
{4}
н/о н/о +23.4 +16.5 65 +28 +28 душно 1015.7 967.1
06 14.06 ЮВ 2
{4}
н/о н/о +23.3 +16.2 64 +28 +28 душно 1015.3 966.7
07 14.06 В 2
{4}
н/о н/о +22.7 +16.1 66 +27 +27 душно 1015.7 967.0
08 14.06 В 1
{3}
н/о н/о +21.3 +16.1 72 +25 +25 комфорт 1016.3 967.4
09 14.06 В 1
{3}
н/о н/о +21.2 +16.1 73 +25 +25 комфорт 1016.9 967.9
10 14.06 В 1
{3}
н/о н/о +21.9 +16.3 71 +26 +26 душно 1017.4 968.5
11 14.06 В 2
{4}
н/о н/о +24.1 +16.4 62 +28 +28 душно 1017.5 969.0
12 14.06 В 3
{5}
н/о н/о +25.6 +15.6 54 +29 +29 душно 1017.6 969.3
13 14.06 ЮВ 3
{7}
н/о н/о +27.4 +15.2 47 +30 +30 жарко 1017.2 969.2
14 14.06 В 3
{6}
н/о н/о +29.0 +14.7 42 +31 +31 жарко 1016.2 968.5
15 14.06 В 3
{6}
н/о н/о +29.9 +14.6 39 +32 +32 жарко 1015.1 967.6
16 14.06 ЮВ 3
{6}
н/о н/о +31.3 +14.6 36 +33 +33 жарко 1014.0 966.7
17 14.06 ЮВ 3
{6}
н/о н/о +32.0 +13.5 33 +33 +33 жарко 1012.8 965.7
18 14.06 ЮВ 3
{5}
н/о н/о +32.4 +13.7 32 +34 +34 очень
жарко
1012.1 965.1
19 14.06 В 3
{5}
н/о н/о +32.3 +13.1 31 +33 +33 жарко 1012.1 965.1
20 14.06 ЮВ 2
{5}
н/о н/о +31.1 +12.8 33 +32 +32 жарко 1012.5 965.3
21 14.06 ЮВ 2
{4}
н/о н/о +29.9 +13.5 37 +31 +31 жарко 1013.2 965.8
22 14.06 ЮВ 2
{4}
н/о н/о +29.3 +13.6 38 +31 +31 жарко 1013.9 966.3
23 14.06 ЮВ 2
{3}
н/о н/о +28.8 +13.4 39 +30 +30 жарко 1014.4 966.7
00 15.06 В 1
{3}
н/о н/о +26.3 +13.8 46 +28 +28 жарко 1015.4 967.3
01 15.06 В 1
{2}
н/о н/о +24.7 +14.6 53 +27 +27 жарко 1015.9 967.5
02 15.06 В 1
{3}
н/о н/о +24.6 +14.2 52 +27 +27 жарко 1015.9 967.5
03 15.06 В 1
{3}
н/о н/о +23.4 +13.9 55 +27 +27 душно 1016.3 967.7
04 15.06 В 1
{2}
н/о н/о +21.7 +13.4 59 +24 +24 комфорт 1016.2 967.3
05 15.06 В 1
{2}
н/о н/о +21.6 +12.9 58 +24 +24 комфорт 1015.7 966.8
06 15.06 В 1
{3}
н/о н/о +20.5 +12.8 61 +24 +24 комфорт 1015.7 966.7
07 15.06 В 1
{2}
н/о н/о +20.0 +12.5 62 +23 +23 комфорт 1015.7 966.6
08 15.06 В 1
{2}
н/о н/о +19.3 +12.3 64 +22 +22 комфорт 1016.3 967.0
09 15.06 В 1
{2}
н/о н/о +18.0 +12.3 69 +20 +20 1016.8 967.3
10 15.06 В 1
{3}
н/о н/о +20.3 +13.8 66 +24 +24 комфорт 1017.2 968.1
11 15.06 В 3
{5}
н/о н/о +23.1 +13.8 56 +27 +27 душно 1017.7 969.0
12 15.06 В 3
{6}
н/о н/о +24.4 +12.2 46 +26 +26 жарко 1018.0 969.5
13 15.06 В 2
{6}
н/о н/о +26.2 +12.7 43 +28 +28 жарко 1017.8 969.6
14 15.06 В 3
{6}
н/о н/о +27.5 +12.2 39 +29 +29 жарко 1017.0 969.0
15 15.06 В 3
{5}
н/о н/о +29.8 +12.3 34 +31 +31 жарко 1015.6 968.0
16 15.06 В 2
{6}
н/о н/о +30.2 +11.0 31 +31 +31 жарко 1014.4 967.0
17 15.06 В 3
{5}
н/о н/о +30.8 +10.2 28 +31 +31 жарко 1013.5 966.2
18 15.06 ЮВ 2
{6}
н/о н/о +31.2 +9.6 26 +31 +31 жарко 1012.6 965.4
19 15.06 В 2
{5}
н/о н/о +31.0 +8.5 25 +30 +30 жарко 1012.7 965.5
20 15.06 В 2
{4}
н/о н/о +30.4 +9.0 26 +30 +30 жарко 1012.9 965.6
21 15.06 В 1
{4}
н/о н/о +27.7 +9.9 33 +28 +28 жарко 1013.7 965.9
22 15.06 СВ 1
{1}
н/о н/о +23.9 +10.9 44 +25 +25 комфорт 1015.1 966.6
23 15.06 ЮВ 1
{2}
н/о н/о +23.8 +11.4 46 +25 +25 комфорт 1015.6 967.1
00 16.06 ЮВ 1
{2}
н/о н/о +20.7 +11.8 57 +24 +24 комфорт 1016.6 967.6
01 16.06 ЮВ 1
{1}
н/о н/о +20.0 +11.5 58 +23 +23 комфорт 1017.0 967.8
02 16.06 В 1
{1}
н/о н/о +17.8 +11.6 67 +19 +19 1017.3 967.7
03 16.06 штиль 0
{1}
н/о н/о +18.5 +11.4 63 +19 +19 1017.3 967.9
04 16.06 В 1
{2}
н/о н/о +19.8 +12.0 61 +22 +22 комфорт 1016.9 967.7
05 16.06 В 1
{2}
н/о н/о +20.0 +11.8 59 +23 +23 комфорт 1016.6 967.4
06 16.06 В 1
{2}
н/о н/о +19.3 +12.2 63 +22 +22 комфорт 1016.4 967.1
07 16.06 В 1
{2}
н/о н/о +19.4 +12.8 66 +22 +22 комфорт 1016.2 967.0
08 16.06 В 1
{2}
н/о н/о +18.7 +13.1 70 +21 +21 комфорт 1017.1 967.7
09 16.06 ЮВ 2
{3}
н/о н/о +19.0 +14.3 74 +21 +21 комфорт 1017.3 967.9
10 16.06 В 1
{3}
н/о н/о +20.3 +14.9 71 +24 +24 комфорт 1017.8 968.6
11 16.06 В 3
{5}
н/о н/о +23.4 +15.4 61 +28 +28 душно 1018.1 969.4
12 16.06 В 3
{6}
н/о н/о +25.2 +14.9 53 +28 +28 жарко 1018.3 969.9
13 16.06 ЮВ 3
{6}
н/о н/о +26.4 +14.2 47 +29 +29 жарко 1018.0 969.8
14 16.06 ЮВ 3
{6}
н/о н/о +28.0 +13.5 41 +30 +30 жарко 1017.1 969.2
15 16.06 ЮВ 2
{5}
н/о н/о +29.6 +12.7 35 +31 +31 жарко 1016.2 968.6
17 16.06 ЮВ 2
{4}
н/о н/о +31.7 +11.9 30 +32 +32 жарко 1013.4 966.2
18 16.06 ЮВ 2
{5}
н/о н/о +32.1 +11.6 29 +32 +32 жарко 1012.8 965.7
19 16.06 ЮВ 2
{5}
н/о н/о +31.4 +10.7 28 +31 +31 жарко 1012.8 965.6
20 16.06 ЮВ 2
{4}
н/о н/о +30.7 +10.3 28 +30 +30 жарко 1013.3 966.0
21 16.06 Ю 1
{4}
н/о н/о +28.0 +9.8 32 +28 +28 жарко 1014.1 966.3
22 16.06 Ю 2
{2}
н/о н/о +26.8 +9.3 33 +27 +27 жарко 1014.6 966.6
23 16.06 Ю 2
{3}
н/о н/о +25.6 +9.9 37 +26 +26 жарко 1015.4 967.2
00 17.06 СВ 1
{3}
н/о н/о +21.7 +10.2 48 +23 +23 комфорт 1016.9 968.0
01 17.06 В 1
{2}
н/о н/о +19.9 +10.5 55 +23 +23 комфорт 1017.4 968.2
02 17.06 В 1
{1}
н/о н/о +18.3 +10.6 61 +20 +20 1017.3 967.8
03 17.06 ЮВ 1
{2}
н/о н/о +21.5 +10.6 50 +23 +23 комфорт 1016.8 967.9
04 17.06 В 1
{2}
н/о н/о +21.6 +10.6 50 +23 +23 комфорт 1016.1 967.2
05 17.06 В 1
{2}
н/о н/о +20.4 +11.2 55 +23 +23 комфорт 1015.8 966.7
06 17.06 В 1
{2}
н/о н/о +20.0 +11.6 58 +23 +23 комфорт 1015.2 966.1
07 17.06 В 1
{2}
н/о н/о +20.6 +11.8 57 +24 +24 комфорт 1015.1 966.1
08 17.06 В 1
{2}
н/о н/о +19.7 +11.8 60 +22 +22 комфорт 1015.5 966.3
09 17.06 В 1
{2}
н/о н/о +18.9 +12.4 66 +21 +21 комфорт 1016.2 966.9
10 17.06 В 1
{2}
н/о н/о +19.9 +13.3 66 +23 +23 комфорт 1016.8 967.6
11 17.06 В 1
{3}
н/о н/о +23.9 +14.8 57 +27 +27 жарко 1017.3 968.7
12 17.06 В 2
{4}
н/о н/о +25.2 +15.2 54 +28 +28 жарко 1017.5 969.1
13 17.06 В 3
{6}
н/о н/о +26.4 +14.9 49 +29 +29 жарко 1017.6 969.4
14 17.06 В 3
{5}
н/о н/о +28.2 +15.1 45 +31 +31 душно 1016.8 968.9
15 17.06 В 2
{5}
н/о н/о +29.8 +15.3 41 +32 +32 душно 1015.6 968.0
16 17.06 В 2
{5}
н/о н/о +30.9 +14.7 37 +33 +33 душно 1014.2 966.9
17 17.06 ЮВ 2
{4}
н/о н/о +31.3 +13.6 34 +33 +33 жарко 1012.8 965.6
18 17.06 В 2
{4}
н/о н/о +32.2 +14.0 33 +34 +34 душно 1012.0 965.0
19 17.06 ЮВ 1
{4}
н/о н/о +32.0 +13.6 33 +33 +33 жарко 1011.7 964.7
20 17.06 ЮВ 2
{3}
н/о н/о +31.3 +13.4 34 +33 +33 жарко 1012.0 964.8
21 17.06 ЮВ 1
{3}
н/о н/о +29.6 +13.2 37 +31 +31 жарко 1012.7 965.2
22 17.06 В 1
{1}
н/о н/о +26.5 +14.0 46 +29 +29 жарко 1013.8 965.8
23 17.06 СВ 1
{1}
н/о н/о +25.0 +14.7 53 +28 +28 жарко 1014.7 966.4
00 18.06 СВ 1
{1}
н/о н/о +24.6 +15.2 56 +28 +28 душно 1015.3 966.9
01 18.06 СВ 1
{1}
н/о н/о +24.3 +15.3 57 +27 +27 жарко 1015.6 967.2
02 18.06 ЮВ 1
{1}
н/о н/о +23.9 +14.6 56 +27 +27 жарко 1015.5 967.0
03 18.06 В 1
{1}
н/о н/о +22.3 +14.9 63 +26 +26 жарко 1015.8 967.1
04 18.06 В 1
{1}
н/о н/о +20.9 +14.9 69 +25 +25 комфорт 1015.8 966.8
05 18.06 ЮВ 2
{3}
н/о н/о +25.3 +14.9 53 +28 +28 жарко 1014.5 966.3
06 18.06 В 2
{3}
н/о н/о +25.6 +15.1 52 +28 +28 жарко 1014.5 966.3
07 18.06 В 2
{4}
н/о н/о +24.5 +15.7 58 +28 +28 душно 1014.5 966.2
08 18.06 В 2
{5}
н/о н/о +24.4 +16.7 62 +28 +28 душно 1015.1 966.7
09 18.06 ЮВ 2
{5}
н/о н/о +23.8 +16.9 65 +27 +27 жарко 1015.6 967.1
10 18.06 В 2
{4}
н/о н/о +23.7 +17.2 67 +28 +28 душно 1016.2 967.7
11 18.06 В 3
{5}
н/о н/о +25.0 +17.7 64 +29 +29 душно 1016.8 968.4
12 18.06 В 3
{6}
н/о н/о +26.5 +18.0 60 +31 +31 душно 1017.1 969.0
13 18.06 В 3
{6}
н/о н/о +27.9 +18.2 56 +33 +33 очень
душно
1017.0 969.1
14 18.06 В 2
{5}
н/о н/о +29.4 +17.7 49 +34 +34 очень
душно
1016.5 968.8
15 18.06 В 2
{5}
н/о н/о +30.1 +17.6 47 +34 +34 очень
душно
1015.5 968.0
16 18.06 В 2
{4}
н/о н/о +30.9 +17.0 43 +34 +34 душно 1014.3 967.0
17 18.06 В 2
{4}
н/о н/о +31.5 +16.7 41 +35 +35 очень
душно
1013.0 965.8
18 18.06 В 2
{4}
н/о н/о +31.0 +16.4 41 +34 +34 душно 1012.3 965.1
19 18.06 В 2
{4}
н/о н/о +30.8 +16.4 42 +34 +34 очень
душно
1012.1 964.9
20 18.06 В 1
{4}
н/о н/о +30.4 +16.4 43 +34 +34 очень
душно
1012.3 965.0
21 18.06 В 1
{2}
н/о н/о +29.1 +16.7 47 +33 +33 очень
душно
1012.8 965.3
22 18.06 В 1
{3}
н/о н/о +27.6 +16.8 52 +31 +31 душно 1013.8 966.0
23 18.06 СВ 1
{3}
н/о н/о +27.4 +17.5 55 +32 +32 очень
душно
1014.7 966.8
00 19.06 В 1
{2}
н/о н/о +26.0 +17.9 61 +30 +30 душно 1015.7 967.5
01 19.06 В 1
{1}
н/о н/о +24.8 +18.0 66 +29 +29 душно 1016.2 967.8
02 19.06 В 1
{1}
н/о н/о +24.6 +18.4 68 +29 +29 душно 1016.3 967.9
03 19.06 ЮВ 1
{1}
н/о н/о +23.9 +18.1 70 +28 +28 душно 1016.3 967.8
04 19.06 В 1
{1}
н/о н/о +22.8 +18.1 75 +28 +28 душно 1016.3 967.6
05 19.06 В 2
{3}
н/о н/о +23.6 +18.0 71 +28 +28 душно 1015.7 967.2
06 19.06 В 2
{4}
н/о н/о +23.9 +16.7 64 +27 +27 жарко 1015.3 966.8
07 19.06 В 3
{5}
н/о н/о +23.5 +16.7 66 +27 +27 душно 1015.2 966.7
08 19.06 В 2
{5}
н/о н/о +22.8 +16.6 68 +27 +27 душно 1016.0 967.3
09 19.06 ЮВ 2
{5}
н/о н/о +22.1 +16.5 71 +26 +26 душно 1016.6 967.8
10 19.06 В 2
{4}
н/о н/о +22.3 +16.8 71 +27 +27 душно 1017.4 968.6
11 19.06 В 2
{4}
н/о н/о +23.7 +16.7 65 +27 +27 жарко 1018.1 969.5
12 19.06 В 3
{5}
н/о н/о +25.6 +16.6 58 +29 +29 душно 1018.6 970.2
13 19.06 В 3
{5}
н/о н/о +27.2 +16.4 52 +31 +31 душно 1018.2 970.1
14 19.06 В 3
{5}
н/о н/о +28.8 +16.1 46 +32 +32 душно 1017.3 969.5
15 19.06 В 2
{5}
н/о н/о +30.5 +15.6 41 +33 +33 душно 1016.1 968.6
16 19.06 В 2
{5}
н/о н/о +32.4 +15.2 35 +34 +34 очень
жарко
1014.5 967.4
17 19.06 ЮВ 2
{5}
н/о н/о +32.7 +14.3 33 +34 +34 очень
жарко
1013.4 966.4
18 19.06 ЮВ 2
{4}
н/о н/о +32.5 +13.6 32 +34 +34 очень
жарко
1012.8 965.8
19 19.06 ЮВ 2
{4}
н/о н/о +32.6 +13.5 31 +34 +34 очень
жарко
1012.5 965.5
20 19.06 ЮВ 2
{3}
н/о н/о +31.9 +13.6 33 +33 +33 жарко 1012.6 965.5
21 19.06 ЮВ 1
{3}
н/о н/о +29.7 +14.0 38 +31 +31 жарко 1013.2 965.7
22 19.06 ЮВ 1
{1}
н/о н/о +26.4 +14.8 49 +29 +29 жарко 1014.0 966.0
23 19.06 Ю 1
{2}
н/о н/о +27.4 +15.3 48 +30 +30 жарко 1014.1 966.2
00 20.06 Ю 2
{3}
н/о н/о +27.1 +15.1 48 +30 +30 душно 1014.6 966.7
01 20.06 Ю 1
{3}
н/о н/о +26.4 +15.2 50 +29 +29 жарко 1015.1 967.0
02 20.06 В 1
{3}
н/о н/о +24.4 +15.3 57 +27 +27 жарко 1015.7 967.3
03 20.06 В 1
{3}
н/о н/о +22.6 +15.4 64 +27 +27 душно 1015.9 967.2
04 20.06 СЗ 1
{1}
н/о н/о +22.8 +15.4 63 +27 +27 душно 1015.9 967.2
05 20.06 В 1
{2}
н/о н/о +22.7 +15.8 65 +27 +27 душно 1015.4 966.7
06 20.06 В 1
{3}
н/о н/о +21.8 +15.8 69 +25 +25 комфорт 1015.9 967.1
07 20.06 ЮВ 2
{3}
н/о н/о +24.7 +13.7 50 +27 +27 жарко 1015.3 967.0
08 20.06 В 1
{3}
н/о н/о +21.8 +13.9 61 +25 +25 комфорт 1016.4 967.5

 

Местоположение метеостанции Жилбуэс (Пиауи, Бразилия): широта -9.87 долгота -45.35 высота над уровнем моря 427 м.

В архиве по умолчанию представлена погода в Жилбуэсе за последнюю неделю. Архивные данные за месяц целиком и за предыдущие месяцы, начиная с января 2011 года, Вы можете получить, выбрав интересующий диапазон дат из раскрывающегося списка и нажав кнопку "Ввод!".


*Определитесь, кто Вы:
робот инопланетянин человек

Внимание! Время в таблицах - всемирное. Для получения местного времени необходимо прибавить поправку, которая равна -3 ч.

Смотрите также архив погоды в соседних городах и на ближайших метеорологических станциях:

Погода в Матейрусе (Токантинс, Бразилия) (88 км)
Погода в Альто-Парнайбе (Пиауи, Бразилия) (107 км)
Погода в Формоза-ду-Риу-Прету (Баия, Бразилия) (132 км)
Погода в Бон-Жезусе (Пиауи, Бразилия) (142 км)
Погода в Санта-Рита-де-Кассии (Баия, Бразилия) (156 км)
Погода в Буритираме (Баия, Бразилия) (209 км)
Погода в Альворада-ду-Гургее (Пиауи, Бразилия) (227 км)
Погода в Караколе (Пиауи, Бразилия) (232 км)
Погода в Кампус-Линдусе (Токантинс, Бразилия) (238 км)
Погода в Дианополисе (Токантинс, Бразилия) (253 км)

Пояснения к столбцам:

Ветер - указаны скорость ветра в м/с - средняя за 10 мин, порывы в срок и между сроками (в фигурных скобках) и направление, откуда дует ветер: С - северный, СВ - северо-восточный, В - восточный, ЮВ - юго-восточный, Ю - южный, ЮЗ - юго-западный, З - западный, СЗ - северо-западный.
Видимость - горизонтальная дальность видимости в метрах или километрах. При видимости от 1 до 10 км при отсутствии осадков обычно наблюдается дымка, при ухудшении видимости до 1 км и менее - туман. В сухую погоду видимость может ухудшаться дымом, пылью или мглою.
Явления - указаны атмосферные явления, наблюдавшиеся в срок или в последний час перед сроком; фигурными скобками обозначены явления, наблюдавшиеся между сроками (за 1-3 часа до срока); квадратными скобками обозначены град или гололедные отложения с указанием их диаметра в мм.
Облачность - указаны через наклонную черту общая и нижняя облачность в баллах и высота нижней границы облаков в метрах; квадратными скобками обозначены формы облаков: Ci - перистые, Cs - перисто-слоистые, Cc - перисто-кучевые, Ac - высококучевые, As - высокослоистые, Sc - слоисто-кучевые, Ns - слоисто-дождевые, Cu - кучевые, Cb - кучево-дождевые. Подробнее классификацию облаков см. в Атласе облаков (PDF).
T - Температура воздуха - температура, измеренная на высоте 2 м над землей.
Td - Температура точки росы - температура, при понижении до которой содержащийся в воздухе водяной пар достигнет насыщения.
f - Относительная влажность воздуха - влажноcть воздуха, измеренная на высоте 2 м над землей.
Te - Эффективная температура - температура, которую ощущает одетый по сезону человек в тени. Характеристика душности погоды. При расчете учитывается влияние влажности воздуха и скорости ветра на теплоощущения человека.
Tes - Эффективная температура на солнце - температура, которую ощущает человек, с поправкой на солнечный нагрев. Характеристика знойности погоды. Зависит от высоты солнца над горизонтом, облачности и скорости ветра. Ночью, в пасмурную погоду, а также при ветре 12 м/с и более поправка равна нулю.
P - Атмосферное давление - приведенное к уровню моря атмосферное давление.
Po - Атмосферное давление - измеренное на уровне метеостанции атмосферное давление.
Tmin - Минимальная температура - минимум температуры воздуха на высоте 2 м над землей.
Tmax - Максимальная температура - максимум температуры воздуха на высоте 2 м над землей.
R - Количество осадков - Количество выпавших осадков за период времени, мм. При наведении курсора мыши на число - период времени, за который выпало указанное количество осадков.
R24 - Количество осадков - Количество выпавших осадков за 24 часа, мм.
S - Снежный покров - Высота снежного покрова, см. При наведении курсора мыши на число - состояние снежного покрова и степень покрытия местности в баллах.